GW7110 Weather Reports


time (UTC)temp
C
wind
direction
speed
KPH
gust
KPH
rain 1hr
cm
rain 24hr
cm
rain mn
cm
humidity
%
barometer
mb
20260504141127 14 299 1.6 3.2 0.00 0.00 0.00 71 30.1
20260504140257 13 284 3.2 3.2 0.00 0.00 0.00 73 30.1
20260504070358 10 29 0.0 1.6 0.00 5.59 0.00 84 30.0
20260503235859 18 284 1.6 3.2 0.00 5.59 0.00 42 30.0
20260503235359 18 275 1.6 3.2 0.00 5.59 0.00 42 30.0
20260503234858 20 285 3.2 4.8 0.00 5.59 0.00 40 30.0
20260503233859 20 281 0.0 3.2 0.00 5.59 0.00 39 30.0
20260503233358 20 281 3.2 4.8 0.00 5.59 0.00 38 30.0
20260503232859 20 309 0.0 3.2 0.00 5.59 0.00 38 30.0
20260503231858 20 271 1.6 3.2 0.00 5.59 0.00 37 30.0
20260503231358 20 296 1.6 4.8 0.00 5.59 0.00 37 30.0
20260503230858 21 286 1.6 3.2 0.00 5.59 0.00 37 30.0
20260503230358 20 280 1.6 3.2 0.00 5.59 0.00 37 30.0
20260503225858 21 288 3.2 4.8 0.00 5.59 0.00 38 30.0
20260503225358 21 287 1.6 4.8 0.00 5.59 0.00 37 30.1
20260503224859 21 296 3.2 4.8 0.00 5.59 0.00 37 30.1
20260503224358 21 242 1.6 4.8 0.00 5.59 0.00 37 30.1
20260503223858 21 262 3.2 6.4 0.00 5.59 0.00 38 30.1
20260503223358 21 282 3.2 4.8 0.00 5.59 0.00 39 30.1
20260503222858 21 269 1.6 3.2 0.00 5.59 0.00 38 30.1
20260503222358 21 277 3.2 6.4 0.00 5.59 0.00 39 30.1
20260503221859 21 275 1.6 3.2 0.00 5.59 0.00 39 30.1
20260503221358 21 231 0.0 3.2 0.00 5.59 0.00 39 30.1
20260503220859 21 267 3.2 4.8 0.00 5.59 0.00 38 30.1
20260503220358 21 297 1.6 6.4 0.00 5.59 0.00 40 30.1
20260503215859 21 273 1.6 4.8 0.00 5.59 0.00 39 30.1
20260503215359 21 275 3.2 8.0 0.00 5.59 0.00 40 30.1
20260503214858 21 270 0.0 3.2 0.00 5.59 0.00 40 30.1
20260503214358 21 280 1.6 4.8 0.00 5.59 0.00 39 30.1
20260503213859 21 240 1.6 3.2 0.00 5.59 0.00 40 30.1
20260503213359 21 273 1.6 3.2 0.00 5.59 0.00 39 30.1
20260503212858 21 277 3.2 6.4 0.00 5.59 0.00 38 30.1
20260503212358 21 250 1.6 3.2 0.00 5.59 0.00 40 30.1
20260503211858 21 274 3.2 8.0 0.00 5.59 0.00 40 30.1
20260503211358 21 283 1.6 4.8 0.00 5.59 0.00 39 30.1
20260503210858 21 268 1.6 4.8 0.00 5.59 0.00 40 30.1
20260503210359 21 236 3.2 6.4 0.00 5.59 0.00 39 30.1
20260503205859 22 261 3.2 4.8 0.00 5.59 0.00 38 30.1
20260503205359 22 270 1.6 4.8 0.00 5.59 0.00 42 30.1
20260503204858 21 259 0.0 6.4 0.00 5.59 0.00 41 30.1
20260503204359 22 224 1.6 3.2 0.00 5.59 0.00 39 30.1
20260503203859 21 262 1.6 3.2 0.00 5.59 0.00 41 30.1
20260503203359 21 226 0.0 3.2 0.00 5.59 0.00 41 30.1
20260503202858 21 250 0.0 3.2 0.00 5.59 0.00 41 30.1
20260503202359 21 189 0.0 3.2 0.00 5.59 0.00 40 30.1
20260503201859 21 167 1.6 3.2 0.00 5.59 0.00 39 30.1
20260503201358 20 298 1.6 4.8 0.00 5.59 0.00 41 30.1
20260503200859 20 201 1.6 3.2 0.00 5.59 0.00 43 30.1
20260503200359 20 254 3.2 4.8 0.00 5.59 0.00 42 30.1
20260503195858 21 201 0.0 3.2 0.00 5.59 0.00 43 30.1
20260503194859 20 279 1.6 6.4 0.00 5.59 0.00 44 30.1
20260503194359 20 170 0.0 4.8 0.00 5.59 0.00 43 30.1
20260503193858 20 257 1.6 4.8 0.00 5.59 0.00 44 30.1
20260503193359 20 239 3.2 8.0 0.00 5.59 0.00 45 30.1
20260503192858 20 239 3.2 8.0 0.00 5.59 0.00 45 30.1
20260503192358 20 289 3.2 6.4 0.00 5.59 0.00 45 30.1
20260503191900 20 270 3.2 11.3 0.00 5.59 0.00 45 30.1
20260503191358 20 269 3.2 6.4 0.00 5.59 0.00 45 30.1
20260503190858 20 307 1.6 4.8 0.00 5.59 0.00 44 30.1
20260503190358 20 198 1.6 6.4 0.00 5.59 0.00 45 30.1
20260503184400 18 172 0.0 4.8 0.00 5.59 0.00 44 30.1
20260503183358 18 183 1.6 6.4 0.00 5.59 0.00 44 30.1
20260503182859 18 150 1.6 4.8 0.00 5.59 0.00 45 30.1
20260503181931 18 276 1.6 3.2 0.00 5.59 0.00 43 30.1
20260503181359 18 288 1.6 4.8 0.00 5.59 0.00 45 30.1
20260503180859 18 316 1.6 3.2 0.00 5.59 0.00 43 30.1
20260503180359 17 126 0.0 3.2 0.00 5.59 0.00 43 30.2
20260503175859 17 163 1.6 4.8 0.00 5.59 0.00 44 30.2
20260503175359 17 208 3.2 3.2 0.00 5.59 0.00 43 30.2
20260503174905 17 135 0.0 3.2 0.00 5.59 0.00 44 30.2
20260503174359 17 159 1.6 3.2 0.00 5.59 0.00 46 30.2
20260503173858 17 158 0.0 3.2 0.00 5.59 0.00 45 30.2
20260503173400 17 260 0.0 3.2 0.00 5.59 0.00 44 30.2
20260503172859 17 220 1.6 4.8 0.00 5.59 0.00 44 30.2
20260503172359 17 210 3.2 6.4 0.00 5.59 0.00 45 30.2
20260503171859 17 164 1.6 4.8 0.00 5.59 0.00 46 30.2
20260503170858 16 282 3.2 6.4 0.00 5.59 0.00 45 30.2
20260503170358 16 309 1.6 6.4 0.00 5.59 0.00 47 30.2
20260503150359 13 166 0.0 3.2 0.00 5.59 0.00 60 30.2